Погода в Чарикаре

Афганистан     35°00′48″N   69°10′11″E
темп.,
°C
ветер,
м/с
пор.,
м/с
влажн.,
%
обл.,
%
осадки,
мм/ч
давл.,
гПа
погр.,
м
25 января, пн
пн2501:30−2с112228 0.0 102523
04:30−3с112030 0.0 102422
07:30−3с01205 0.0 102522
10:30+4ююв11122 0.0 1023391
13:30+7юв11100 0.0 1020666
16:30+6юв11170 0.0 102122
19:30+2ссз23230 0.0 102528
22:30−1ссз22250 0.0 102627
26 января, вт
вт2601:30−2ссз22250 0.0 102628
04:30−3ссз11240 0.0 102626
07:30−3ссз11240 0.0 102727
10:30+4ю11130 0.0 1025489
13:30+6ююв21120 0.0 1021749
16:30+6ююв11160 0.0 102149
19:30+1ссз22250 0.0 102529
22:30−1ссз22250 0.0 102626
27 января, ср
ср2701:30−3с12250 0.0 102625
04:30−4ссз11220 0.0 102524
07:30−4ссз11190 0.0 102623
10:30+3ююв11110 0.0 1023455
13:30+6ююв211016 0.0 1020611
16:30+5юв111612 0.0 102036
19:300с12240 0.0 102525
22:30−2ссз122312 0.0 102525
28 января, чт
чт2801:30−3ссз112020 0.0 102524
04:30−4ссз111829 0.0 102423
07:30−4ссз01160 0.0 102523
10:30+4ююв1190 0.0 1023466
13:30+6ююв2190 0.0 1019618
16:30+5ююв11150 0.0 102026
19:30+1ссз12210 0.0 102424
22:30−1ссз12200 0.0 102625
29 января, пт
пт2901:30−3ссз11200 0.0 102624
04:30−4ссз11190 0.0 102623
07:30−3ссз01190 0.0 102723
10:30+4ю21120 0.0 1025444
13:30+7ююв22110 0.0 1021720
16:30+6ююв11170 0.0 102152
19:30+1с11210 0.0 102424
22:30−1с11190 0.0 102423